Regional Weather Roundup
Issued by NWS Upton, NY

Home | Current Version | Previous Version | Text Only | Print | Product List | Glossary On
Versions: 1 2 3 4 5 6 7 8 9 10 11 12 13 14 15 16 17 18 19 20 21 22 23 24 25 26 27
000
ASUS41 KOKX 251705
RWROKX

REGIONAL WEATHER ROUNDUP
NATIONAL WEATHER SERVICE NEW YORK NY
100 PM EDT MON JUL 25 2016

NOTE: "FAIR" INDICATES FEW OR NO CLOUDS BELOW 12,000 FEET WITH NO
SIGNIFICANT WEATHER AND/OR OBSTRUCTIONS TO VISIBILITY.

NYZ071-072-176-178-NJZ106-104-251800-
NEW YORK CITY METRO AREA

CITY           SKY/WX    TMP DP  RH WIND       PRES   REMARKS
Central Park   SUNNY     88  72  58 MISG      29.92F HX  94
LaGuardia APRT MOSUNNY   90  71  53 S9        29.88F HX  96
Kennedy INTL   MOSUNNY   84  72  67 S12       29.92F
Newark/Liberty PTSUNNY   92  70  48 VRB3      29.88F HX  97
BRNX BOT. GARD   N/A     88  70  55 S2        29.91F HX  92
Wall St Helipt SUNNY     86  73  66 SW5       29.90F HX  93
Teterboro      SUNNY     89  71  55 S9        29.87F HX  95
$$

NYZ177-179-078>081-251800-
LONG ISLAND NEW YORK

CITY           SKY/WX    TMP DP  RH WIND       PRES   REMARKS
FARMINGDALE    SUNNY     85  71  63 SW14      29.92F HX  90
ISLIP          PTSUNNY   85  70  60 SW17      29.91F
SHIRLEY        MOSUNNY   85  71  63 SW12      29.92F HX  90
RIVERHEAD      NOT AVBL
WESTHAMPTON    SUNNY     81  68  64 SW13      29.93F
SOUTHAMPTON      N/A     77  70  78 SW10      29.89F
BRIDGEHAMPTON    N/A     84  70  61 SW3       29.91F
EAST HAMPTON   FAIR      81  67  61 SW16G22   29.92S
MONTAUK POINT    N/A     83  68  60 S7        29.93F
$$

NYZ052-065-067-251800-
HUDSON VALLEY

CITY           SKY/WX    TMP DP  RH WIND       PRES   REMARKS
WHITE PLAINS   MOSUNNY   85  72  65 S9        29.90F HX  91
NEWBURGH       MOSUNNY   91  70  49 W7        29.90F HX  97
MONTGOMERY     SUNNY     93  70  46 SW10      29.87F HX  99
POUGHKEEPSIE   SUNNY     95  67  39 SW8       29.86F HX  99
ALBANY         PTSUNNY   86  65  49 SW3       29.87F
$$

NJZ001-105-106-008-010-013-015-019>022-104-251800-
NEW JERSEY

CITY           SKY/WX    TMP DP  RH WIND       PRES   REMARKS
NEWARK/LIBERTY PTSUNNY   92  70  48 VRB3      29.88F HX  97
TETERBORO      SUNNY     89  71  55 S9        29.87F HX  95
CALDWELL       SUNNY     91  71  51 S7        29.88F HX  97
MORRISTOWN     MOSUNNY   90  72  55 W6        29.89F HX  96
SOMERVILLE     SUNNY     93  69  45 NW7       29.87F HX  98
SUSSEX         SUNNY     91  70  49 VRB6      29.89F HX  96
ANDOVER          N/A     88  69  53 CALM      29.91F HX  92
TRENTON        SUNNY     89  75  63 S7        29.90F HX  99
MILLVILLE      SUNNY     92  74  55 VRB6      29.92F HX 101
ATLANTIC CITY  MOSUNNY   90  76  63 SW7       29.92F HX 101
WRIGHTSTOWN    SUNNY     89  76  65 VRB7      29.88F HX 100
TOMS RIVER     SUNNY     92  73  53 SW10      29.92F HX 100
BELMAR         MOSUNNY   88  75  65 W6        29.92F HX  97
$$

PAZ047>061-062-071-251800-
EASTERN PENNSYLVANIA

CITY           SKY/WX    TMP DP  RH WIND       PRES   REMARKS
PHILADELPHIA   MOSUNNY   91  74  57 SW10      29.90F HX 100
ALLENTOWN      MOSUNNY   92  70  48 SW9       29.90F HX  97
SCRANTON       MOSUNNY   91  71  51 SW10G22   29.91F HX  97
$$

CTZ002-004>006-009-010-012-RIZ004-006-007-MAZ004-011-015-251800-
SOUTHERN NEW ENGLAND
 IN CT

CITY           SKY/WX    TMP DP  RH WIND       PRES   REMARKS
BRADLEY INTL   PTSUNNY   95  65  37 S14       29.85F HX  97
HARTFORD       SUNNY     94  67  41 S13       29.86F HX  97
DANBURY        MOSUNNY   89  70  53 W9        29.91F HX  94
WTRBRY/OXFORD  MOSUNNY   88  68  51 SW5       29.94F HX  91
BRIDGEPORT     SUNNY     85  71  63 SW9       29.89F HX  90
MERIDEN        SUNNY     90  70  51 S9        29.88F HX  95
NEW HAVEN      SUNNY     84  71  65 SW6       29.90F
CHESTER        FAIR      86  68  54 S14       29.91F
GROTON         MOSUNNY   83  70  64 S7        29.90F
WILLIMANTIC    NOT AVBL

 IN RI

CITY           SKY/WX    TMP DP  RH WIND       PRES   REMARKS
PROVIDENCE     MOSUNNY   91  68  46 SW14G23   29.89F HX  95
BLOCK ISLAND   CLOUDY    78  69  73 SW14      29.94F
WESTERLY       PTSUNNY   85  66  53 SW7       29.92F

 IN MA

CITY           SKY/WX    TMP DP  RH WIND       PRES   REMARKS
BOSTON         PTSUNNY   79  68  69 E12       29.87F
WORCESTER      SUNNY     89  63  41 S16G22    29.91F HX  90
WESTFIELD      MOSUNNY   96  65  35 SW10G18   29.84F HX  98
PROVINCETOWN   SUNNY     85  71  63 S17G23    29.90F HX  90
NANTUCKET      CLOUDY    75  71  87 SW16      29.95S
$$

ANZ330-335-338-340-345-350-353-355-251800-
COASTAL MARINE OBSERVATIONS


STATION/POSITION TIME  SKY/WX   TEMP    WIND        PRES    VSBY  WAVE
                                AIR SEA DIR/SP/G                  HT/PER
                 (UTC)          (F)     (DEG/KT/KT) (MB)    (MI)  (FT/S)
NY HARB ENTRANCE 1550            75 74  220/  8/ 10 1013.1          2/ 4
20S FIRE ISLAND  1550            74 72  200/ 12/ 16 1013.1          3/ 5
GREAT SOUTH BAY  1600            76 81  250/ 16/ 17   N/A
23 SSW MONTAUK P 1550            76 73  220/  2/  4 1014.1          2/ 8
15 E BARNEGAT LI 1622               75                N/A           2/ 8
HUDSON CANYON    1550            76 77              1014.2          2/ 5
KINGS POINT      1600            79 74              1012.6
EXECUTION ROCKS  1600            78     190/  8/ 10   N/A
CENTRAL LI SOUND 1600            77 75  300/  4/  6   N/A           1/ 3
EASTERN LI SOUND 1600            80 71  300/  2/  2   N/A
ROBBINS REEF     1600            77     160/ 13/ 16 1012.2
$$


>>>>>>>>>>>>>>>>>>>>>>>>>>>> KEY <<<<<<<<<<<<<<<<<<<<<<<<<<<
>                                                          <
>     SKY/WX - SKY CONDITION/PRESENT WEATHER               <
>     TMP    - TEMPERATURE IN FAHRENHEIT                   <
>     DP     - DEWPOINT IN FAHRENHEIT                      <
>     RH     - RELATIVE HUMIDITY IN PERCENT                <
>     WIND   - DIRECTION AND SPEED IN MPH                  <
>     PRES   - MEAN SEA LEVEL PRESSURE IN INCHES OF HG     <
>     WCI    - WIND CHILL INDEX                            <
>     VSB    - VISIBILITY IN MILES                         <
>     HX     - HEAT INDEX                                  <
>     TC     - TEMPERATURE IN CELSIUS                      <
>     VRB    - VARIABLE WIND DIRECTION                     <
>                                                          <
>>>>>>>>>>>>>>>>>>>>>>>>>>>> KEY <<<<<<<<<<<<<<<<<<<<<<<<<<<






USA.gov is the U.S. government's official web portal to all federal, state and local government web resources and services.